Project,Study,Ord_Occ,Event_Num,Cast_ID,Date_Time_UTC,Date_Time_PST,Lat_Dec,Lon_Dec,Sta_ID,Line,Sta,Depth,Pressure,PrQ,Temp1,Temp1Q,Temp2,Temp2Q,TempAve,Salt1,Salt1Q,Salt1_Corr,Salt2,Salt2Q,Salt2_Corr,SaltAve_Corr,Ox1,Ox1Q,Ox1_CruiseCorr,Ox1_StaCorr,Ox2,Ox2Q,Ox2_CruiseCorr,Ox2_StaCorr,OxAve_StaCorr,Ox1uM,Ox1uM_CruiseCorr,Ox1uM_StaCorr,Ox2uM,Ox2uM_CruiseCorr,Ox2uM_StaCorr,OxAveuM_StaCorr,FluorV,FluorQ,EstChl_CruiseCorr,EstChl_StaCorr,ISUSV,ISUSQ,EstNO3_CruiseCorr,EstNO3_StaCorr,SigThetaTS1,SigThetaTS1Q,SigThetaTS2,SigThetaTS2Q,BAT,XMiss,TransQ,pH,pHQ,SPAR,SPARQ,PAR,PARQ,PoT1,PoT2,DynHt,SVA,OxSat1,OxSat2,BTL_Depth,BTL_Temp,SaltB,OxB,OxBuM,Chl-a,Phaeo,NO3,NO2,NH4,PO4,SIL
CalCOFI,2007SR,056,58,2007_056u,23-Jul-2020 23:47:04,23-Jul-2020 15:47:04,34.15012,-121.14872,080.0 060.0,080.0,060.0,516.000,520.368,,5.9457,,5.9463,,5.9460,34.3243,,34.3245,34.3260,,34.3276,34.3261,0.2785,,0.2733,0.2981,,,,,,12.108,12.1514,19.3051,,,,,0.0320,,,,-99.0,,-99.0,-99.0,27.0313,,27.0325,,0.6410,85.1927,,7.538,,2.6291E+03,,7.6670E-03,,5.9005,5.9011,0.8485,,4.008,,,,,,,,,,,,,
CalCOFI,2007SR,056,58,2007_056u,23-Jul-2020 23:48:17,23-Jul-2020 15:48:17,34.15012,-121.14872,080.0 060.0,080.0,060.0,515.000,519.359,,5.9445,,5.9438,,5.9442,34.3245,,34.3247,34.3262,,34.3278,34.3263,0.2785,,0.2733,0.2981,,,,,,12.109,12.1525,19.3059,,,,,0.0328,,,,-99.0,,-99.0,-99.0,27.0315,,27.0329,,0.6407,85.1986,,7.538,,2.3425E+03,,1.4620E-02,,5.8995,5.8988,0.8520,,4.007,,515,5.945,34.3254,0.285,12.45,,,39.65,0.00,0.00,3.19,82.09
CalCOFI,2007SR,056,58,2007_056u,23-Jul-2020 23:48:18,23-Jul-2020 15:48:18,34.15014,-121.14872,080.0 060.0,080.0,060.0,514.000,518.349,,5.9409,,5.9405,,5.9407,34.3245,,34.3247,34.3260,,34.3276,34.3262,0.2784,,0.2732,0.2980,,,,,,12.108,12.1514,19.3051,,,,,0.0332,,,,-99.0,,-99.0,-99.0,27.0319,,27.0332,,0.6408,85.1970,,7.538,,2.4487E+03,,1.2984E-02,,5.8959,5.8955,0.8520,,4.007,,,,,,,,,,,,,
CalCOFI,2007SR,056,58,2007_056u,23-Jul-2020 23:48:19,23-Jul-2020 15:48:19,34.15012,-121.14872,080.0 060.0,080.0,060.0,513.000,517.339,,5.9438,,5.9448,,5.9443,34.3244,,34.3246,34.3259,,34.3275,34.3261,0.2784,,0.2732,0.2980,,,,,,12.105,12.1483,19.3024,,,,,0.0326,,,,-99.0,,-99.0,-99.0,27.0316,,27.0326,,0.6408,85.1970,,7.538,,2.4844E+03,,1.3338E-02,,5.8989,5.8999,0.8520,,4.006,,,,,,,,,,,,,
CalCOFI,2007SR,056,58,2007_056u,23-Jul-2020 23:48:20,23-Jul-2020 15:48:20,34.15012,-121.14872,080.0 060.0,080.0,060.0,512.000,516.329,,5.9477,,5.9476,,5.9477,34.3238,,34.3240,34.3253,,34.3269,34.3255,0.2783,,0.2731,0.2979,,,,,,12.103,12.1462,19.3006,,,,,0.0335,,,,-99.0,,-99.0,-99.0,27.0306,,27.0318,,0.6413,85.1855,,7.538,,2.4932E+03,,1.3573E-02,,5.9029,5.9028,0.8520,,4.006,,,,,,,,,,,,,
CalCOFI,2007SR,056,58,2007_056u,23-Jul-2020 23:48:21,23-Jul-2020 15:48:21,34.15012,-121.14872,080.0 060.0,080.0,060.0,511.000,515.320,,5.9450,,5.9451,,5.9451,34.3240,,34.3242,34.3256,,34.3272,34.3257,0.2789,,0.2737,0.2985,,,,,,12.128,12.1723,19.3227,,,,,0.0336,,,,-99.0,,-99.0,-99.0,27.0310,,27.0323,,0.6408,85.1970,,7.538,,2.4392E+03,,1.7514E-02,,5.9002,5.9004,0.8520,,4.014,,,,,,,,,,,,,
CalCOFI,2007SR,056,58,2007_056u,23-Jul-2020 23:48:22,23-Jul-2020 15:48:22,34.15012,-121.14872,080.0 060.0,080.0,060.0,510.000,514.310,,5.9450,,5.9455,,5.9453,34.3242,,34.3244,34.3255,,34.3271,34.3258,0.2787,,0.2735,0.2983,,,,,,12.120,12.1640,19.3157,,,,,0.0325,,,,-99.0,,-99.0,-99.0,27.0312,,27.0322,,0.6409,85.1946,,7.538,,2.4110E+03,,1.5446E-02,,5.9003,5.9009,0.8520,,4.011,,,,,,,,,,,,,
CalCOFI,2007SR,056,58,2007_056u,23-Jul-2020 23:48:24,23-Jul-2020 15:48:24,34.15014,-121.14872,080.0 060.0,080.0,060.0,509.000,513.300,,5.9486,,5.9488,,5.9487,34.3237,,34.3239,34.3252,,34.3268,34.3254,0.2785,,0.2733,0.2981,1.9315,,0.6699,0.4777,0.3879,12.111,12.1546,19.3077,83.991,,27.7360,23.5219,0.0328,,,,-99.0,,-99.0,-99.0,27.0303,,27.0315,,0.6411,85.1915,,7.538,,2.3739E+03,,1.4142E-02,,5.9041,5.9043,0.8520,,4.008,27.799,,,,,,,,,,,,
CalCOFI,2007SR,056,58,2007_056u,23-Jul-2020 23:48:25,23-Jul-2020 15:48:25,34.15014,-121.14872,080.0 060.0,080.0,060.0,508.000,512.291,,5.9486,,5.9486,,5.9486,34.3238,,34.3240,34.3253,,34.3269,34.3255,0.2785,,0.2733,0.2981,1.9257,,0.6560,0.4627,0.3804,12.109,12.1525,19.3059,83.738,,27.1859,23.2459,0.0331,,,,-99.0,,-99.0,-99.0,27.0304,,27.0315,,0.6410,85.1916,,7.538,,2.3781E+03,,1.2306E-02,,5.9042,5.9042,0.8520,,4.008,27.715,,,,,,,,,,,,
CalCOFI,2007SR,056,58,2007_056u,23-Jul-2020 23:48:25,23-Jul-2020 15:48:25,34.15014,-121.14872,080.0 060.0,080.0,060.0,507.000,511.281,,5.9497,,5.9499,,5.9498,34.3237,,34.3239,34.3251,,34.3267,34.3253,0.2784,,0.2732,0.2980,1.9268,,0.6586,0.4655,0.3818,12.107,12.1504,19.3042,83.788,,27.2946,23.2994,0.0319,,,,-99.0,,-99.0,-99.0,27.0302,,27.0313,,0.6411,85.1911,,7.538,,2.3955E+03,,1.4150E-02,,5.9053,5.9055,0.8520,,4.007,27.733,,,,,,,,,,,,
CalCOFI,2007SR,056,58,2007_056u,23-Jul-2020 23:48:26,23-Jul-2020 15:48:26,34.15013,-121.14872,080.0 060.0,080.0,060.0,506.000,510.271,,5.9517,,5.9531,,5.9524,34.3239,,34.3241,34.3252,,34.3268,34.3255,0.2790,,0.2738,0.2986,1.9244,,0.6529,0.4593,0.3790,12.131,12.1755,19.3254,83.683,,27.0663,23.1959,0.0330,,,,-99.0,,-99.0,-99.0,27.0300,,27.0309,,0.6408,85.1970,,7.538,,2.4194E+03,,1.1932E-02,,5.9074,5.9088,0.8520,,4.015,27.700,,,,,,,,,,,,
CalCOFI,2007SR,056,58,2007_056u,23-Jul-2020 23:48:27,23-Jul-2020 15:48:27,34.15012,-121.14872,080.0 060.0,080.0,060.0,505.000,509.262,,5.9602,,5.9615,,5.9609,34.3231,,34.3233,34.3244,,34.3260,34.3247,0.2813,,0.2762,0.3010,1.9288,,0.6634,0.4707,0.3859,12.232,12.2809,19.4145,83.875,,27.4838,23.4492,0.0329,,,,-99.0,,-99.0,-99.0,27.0284,,27.0292,,0.6407,85.1999,,7.538,,2.4531E+03,,3.5342E-03,,5.9160,5.9173,0.8520,,4.050,27.769,,,,,,,,,,,,
CalCOFI,2007SR,056,58,2007_056u,23-Jul-2020 23:48:28,23-Jul-2020 15:48:28,34.15012,-121.14872,080.0 060.0,080.0,060.0,504.000,508.252,,5.9638,,5.9638,,5.9638,34.3225,,34.3227,34.3242,,34.3258,34.3243,0.2830,,0.2780,0.3028,1.9276,,0.6606,0.4676,0.3852,12.305,12.3571,19.4789,83.821,,27.3664,23.4227,0.0327,,,,-99.0,,-99.0,-99.0,27.0275,,27.0288,,0.6410,85.1921,,7.538,,2.4721E+03,,8.5174E-03,,5.9196,5.9196,0.8520,,4.074,27.752,,,,,,,,,,,,
CalCOFI,2007SR,056,58,2007_056u,23-Jul-2020 23:48:29,23-Jul-2020 15:48:29,34.15012,-121.14872,080.0 060.0,080.0,060.0,503.000,507.242,,5.9627,,5.9628,,5.9628,34.3227,,34.3229,34.3241,,34.3257,34.3243,0.2840,,0.2791,0.3038,1.9251,,0.6546,0.4611,0.3825,12.350,12.4041,19.5187,83.712,,27.1293,23.3240,0.0325,,,,-99.0,,-99.0,-99.0,27.0277,,27.0288,,0.6408,85.1970,,7.538,,2.4760E+03,,7.5254E-03,,5.9187,5.9187,0.8520,,4.089,27.716,,,,,,,,,,,,
CalCOFI,2007SR,056,58,2007_056u,23-Jul-2020 23:48:31,23-Jul-2020 15:48:31,34.15014,-121.14872,080.0 060.0,080.0,060.0,502.000,506.232,,5.9634,,5.9632,,5.9633,34.3227,,34.3229,34.3241,,34.3257,34.3243,0.2817,,0.2766,0.3014,1.9262,,0.6572,0.4640,0.3827,12.251,12.3007,19.4313,83.758,,27.2294,23.3304,0.0327,,,,-99.0,,-99.0,-99.0,27.0276,,27.0288,,0.6408,85.1970,,7.538,,2.3920E+03,,1.1596E-02,,5.9194,5.9192,0.8520,,4.056,27.731,,,,,,,,,,,,
CalCOFI,2007SR,056,58,2007_056u,23-Jul-2020 23:48:32,23-Jul-2020 15:48:32,34.15014,-121.14872,080.0 060.0,080.0,060.0,501.000,505.223,,5.9649,,5.9649,,5.9649,34.3225,,34.3227,34.3238,,34.3254,34.3241,0.2817,,0.2766,0.3014,1.9254,,0.6553,0.4619,0.3817,12.250,12.2997,19.4304,83.726,,27.1598,23.2951,0.0322,,,,-99.0,,-99.0,-99.0,27.0273,,27.0283,,0.6408,85.1970,,7.538,,2.3672E+03,,9.3063E-03,,5.9210,5.9211,0.8520,,4.056,27.722,,,,,,,,,,,,
CalCOFI,2007SR,056,58,2007_056u,23-Jul-2020 23:48:33,23-Jul-2020 15:48:33,34.15014,-121.14872,080.0 060.0,080.0,060.0,500.000,504.213,,5.9654,,5.9654,,5.9654,34.3224,,34.3226,34.3240,,34.3256,34.3241,0.2817,,0.2766,0.3014,1.9221,,0.6474,0.4534,0.3774,12.248,12.2976,19.4286,83.584,,26.8510,23.1398,0.0336,,,,-99.0,,-99.0,-99.0,27.0271,,27.0284,,0.6408,85.1970,,7.538,,2.3417E+03,,9.3408E-03,,5.9216,5.9216,0.8520,,4.055,27.675,,,,,,,,,,,,
CalCOFI,2007SR,056,58,2007_056u,23-Jul-2020 23:48:34,23-Jul-2020 15:48:34,34.15014,-121.14872,080.0 060.0,080.0,060.0,499.000,503.204,,5.9651,,5.9653,,5.9652,34.3226,,34.3228,34.3238,,34.3254,34.3241,0.2816,,0.2765,0.3013,1.9158,,0.6324,0.4370,0.3692,12.246,12.2955,19.4269,83.310,,26.2552,22.8411,0.0333,,,,-99.0,,-99.0,-99.0,27.0272,,27.0282,,0.6408,85.1970,,7.538,,2.3498E+03,,7.8119E-03,,5.9214,5.9216,0.8520,,4.055,27.584,,,,,,,,,,,,
CalCOFI,2007SR,056,58,2007_056u,23-Jul-2020 23:48:35,23-Jul-2020 15:48:35,34.15014,-121.14872,080.0 060.0,080.0,060.0,498.000,502.194,,5.9687,,5.9685,,5.9686,34.3223,,34.3225,34.3236,,34.3252,34.3239,0.2816,,0.2765,0.3013,1.9177,,0.6369,0.4420,0.3717,12.244,12.2934,19.4251,83.390,,26.4292,22.9272,0.0328,,,,-99.0,,-99.0,-99.0,27.0266,,27.0277,,0.6408,85.1970,,7.538,,2.3937E+03,,1.2094E-02,,5.9251,5.9249,0.8520,,4.054,27.613,,,,,,,,,,,,
CalCOFI,2007SR,056,58,2007_056u,23-Jul-2020 23:48:36,23-Jul-2020 15:48:36,34.15012,-121.14872,080.0 060.0,080.0,060.0,497.000,501.184,,5.9702,,5.9704,,5.9703,34.3220,,34.3222,34.3235,,34.3251,34.3237,0.2815,,0.2764,0.3012,1.9231,,0.6498,0.4560,0.3786,12.242,12.2913,19.4233,83.625,,26.9402,23.1818,0.0324,,,,-99.0,,-99.0,-99.0,27.0261,,27.0273,,0.6408,85.1970,,7.538,,2.4514E+03,,8.5480E-03,,5.9267,5.9269,0.8520,,4.054,27.692,,,,,,,,,,,,
CalCOFI,2007SR,056,58,2007_056u,23-Jul-2020 23:48:37,23-Jul-2020 15:48:37,34.15012,-121.14872,080.0 060.0,080.0,060.0,496.000,500.175,,5.9702,,5.9702,,5.9702,34.3219,,34.3221,34.3235,,34.3251,34.3236,0.2815,,0.2764,0.3012,1.9164,,0.6338,0.4386,0.3699,12.240,12.2892,19.4216,83.336,,26.3117,22.8667,0.0335,,,,-99.0,,-99.0,-99.0,27.0261,,27.0273,,0.6410,85.1921,,7.538,,2.4323E+03,,1.0359E-02,,5.9267,5.9268,0.8520,,4.053,27.596,,,,,,,,,,,,
CalCOFI,2007SR,056,58,2007_056u,23-Jul-2020 23:48:38,23-Jul-2020 15:48:38,34.15013,-121.14872,080.0 060.0,080.0,060.0,495.000,499.165,,5.9713,,5.9717,,5.9715,34.3220,,34.3222,34.3231,,34.3247,34.3235,0.2814,,0.2763,0.3011,1.9184,,0.6386,0.4438,0.3725,12.238,12.2871,19.4198,83.423,,26.5009,22.9604,0.0335,,,,-99.0,,-99.0,-99.0,27.0260,,27.0268,,0.6410,85.1919,,7.538,,2.2659E+03,,5.5346E-03,,5.9279,5.9284,0.8520,,4.053,27.626,,,,,,,,,,,,
CalCOFI,2007SR,056,58,2007_056u,23-Jul-2020 23:48:39,23-Jul-2020 15:48:39,34.15014,-121.14872,080.0 060.0,080.0,060.0,494.000,498.155,,5.9736,,5.9739,,5.9738,34.3217,,34.3219,34.3230,,34.3246,34.3233,0.2814,,0.2763,0.3011,1.9181,,0.6379,0.4430,0.3721,12.236,12.2851,19.4180,83.410,,26.4726,22.9453,0.0330,,,,-99.0,,-99.0,-99.0,27.0254,,27.0264,,0.6408,85.1971,,7.538,,2.0659E+03,,5.6613E-03,,5.9304,5.9306,0.8520,,4.052,27.622,,,,,,,,,,,,
CalCOFI,2007SR,056,58,2007_056u,23-Jul-2020 23:48:40,23-Jul-2020 15:48:40,34.15014,-121.14872,080.0 060.0,080.0,060.0,493.000,497.146,,5.9741,,5.9741,,5.9741,34.3215,,34.3217,34.3230,,34.3246,34.3232,0.2813,,0.2762,0.3010,1.9186,,0.6391,0.4443,0.3727,12.234,12.2830,19.4163,83.429,,26.5140,22.9652,0.0326,,,,-99.0,,-99.0,-99.0,27.0253,,27.0264,,0.6408,85.1970,,7.538,,1.9902E+03,,6.1052E-03,,5.9309,5.9309,0.8520,,4.051,27.629,,,,,,,,,,,,
CalCOFI,2007SR,056,58,2007_056u,23-Jul-2020 23:48:41,23-Jul-2020 15:48:41,34.15014,-121.14872,080.0 060.0,080.0,060.0,492.000,496.136,,5.9740,,5.9743,,5.9742,34.3217,,34.3219,34.3231,,34.3247,34.3233,0.2848,,0.2799,0.3047,1.9105,,0.6197,0.4233,0.3640,12.384,12.4396,19.5487,83.077,,25.7486,22.6487,0.0325,,,,-99.0,,-99.0,-99.0,27.0254,,27.0264,,0.6408,85.1970,,7.538,,1.9298E+03,,5.2706E-03,,5.9309,5.9312,0.8520,,4.101,27.513,,,,,,,,,,,,
CalCOFI,2007SR,056,58,2007_056u,23-Jul-2020 23:48:42,23-Jul-2020 15:48:42,34.15014,-121.14872,080.0 060.0,080.0,060.0,491.000,495.126,,5.9793,,5.9799,,5.9796,34.3216,,34.3218,34.3232,,34.3248,34.3233,0.2904,,0.2857,0.3105,1.9099,,0.6183,0.4218,0.3662,12.629,12.6953,19.7649,83.053,,25.6964,22.7307,0.0325,,,,-99.0,,-99.0,-99.0,27.0246,,27.0258,,0.6408,85.1970,,7.539,,1.9098E+03,,2.2841E-03,,5.9363,5.9369,0.8520,,4.183,27.508,,,,,,,,,,,,
CalCOFI,2007SR,056,58,2007_056u,23-Jul-2020 23:48:42,23-Jul-2020 15:48:42,34.15013,-121.14872,080.0 060.0,080.0,060.0,490.000,494.117,,5.9971,,5.9985,,5.9978,34.3213,,34.3215,34.3228,,34.3244,34.3230,0.2873,,0.2825,0.3073,1.9166,,0.6343,0.4391,0.3732,12.495,12.5554,19.6466,83.343,,26.3270,22.9868,0.0333,,,,-99.0,,-99.0,-99.0,27.0222,,27.0232,,0.6413,85.1853,,7.539,,1.9639E+03,,3.2833E-03,,5.9541,5.9555,0.8520,,4.140,27.616,,,,,,,,,,,,
CalCOFI,2007SR,056,58,2007_056u,23-Jul-2020 23:48:43,23-Jul-2020 15:48:43,34.15012,-121.14872,080.0 060.0,080.0,060.0,489.000,493.107,,6.0208,,6.0269,,6.0239,34.3211,,34.3213,34.3226,,34.3242,34.3228,0.2931,,0.2886,0.3133,1.9071,,0.6116,0.4145,0.3639,12.746,12.8174,19.8682,82.932,,25.4333,22.6508,0.0328,,,,-99.0,,-99.0,-99.0,27.0190,,27.0194,,0.6411,85.1913,,7.538,,2.0592E+03,,3.6094E-03,,5.9777,5.9838,0.8520,,4.225,27.498,,,,,,,,,,,,
CalCOFI,2007SR,056,58,2007_056u,23-Jul-2020 23:48:45,23-Jul-2020 15:48:45,34.15013,-121.14872,080.0 060.0,080.0,060.0,488.000,492.098,,6.0636,,6.0630,,6.0633,34.3159,,34.3161,34.3177,,34.3193,34.3177,0.2883,,0.2835,0.3083,1.9076,,0.6128,0.4158,0.3621,12.538,12.6003,19.6846,82.953,,25.4789,22.5818,0.0329,,,,-99.0,,-99.0,-99.0,27.0095,,27.0110,,0.6408,85.1970,,7.539,,2.1393E+03,,8.6330E-03,,6.0205,6.0200,0.8520,,4.161,27.527,,,,,,,,,,,,
CalCOFI,2007SR,056,58,2007_056u,23-Jul-2020 23:48:46,23-Jul-2020 15:48:46,34.15014,-121.14872,080.0 060.0,080.0,060.0,487.000,491.088,,6.0543,,6.0504,,6.0524,34.3168,,34.3170,34.3186,,34.3202,34.3186,0.2867,,0.2819,0.3066,1.9052,,0.6071,0.4096,0.3581,12.468,12.5272,19.6228,82.850,,25.2550,22.4389,0.0338,,,,-99.0,,-99.0,-99.0,27.0113,,27.0132,,0.6408,85.1970,,7.538,,2.1451E+03,,4.1745E-03,,6.0113,6.0074,0.8520,,4.137,27.485,,,,,,,,,,,,
CalCOFI,2007SR,056,58,2007_056u,23-Jul-2020 23:48:47,23-Jul-2020 15:48:47,34.15014,-121.14872,080.0 060.0,080.0,060.0,486.000,490.079,,6.0293,,6.0288,,6.0291,34.3183,,34.3185,34.3193,,34.3209,34.3197,0.2916,,0.2870,0.3117,1.9074,,0.6123,0.4153,0.3635,12.678,12.7465,19.8082,82.942,,25.4550,22.6316,0.0331,,,,-99.0,,-99.0,-99.0,27.0157,,27.0165,,0.6408,85.1970,,7.538,,2.1661E+03,,2.5090E-03,,5.9866,5.9861,0.8520,,4.204,27.502,,,,,,,,,,,,
CalCOFI,2007SR,056,58,2007_056u,23-Jul-2020 23:48:48,23-Jul-2020 15:48:48,34.15014,-121.14872,080.0 060.0,080.0,060.0,485.000,489.069,,6.0194,,6.0234,,6.0214,34.3206,,34.3208,34.3216,,34.3232,34.3220,0.2948,,0.2903,0.3150,1.9053,,0.6073,0.4098,0.3624,12.820,12.8947,19.9335,82.853,,25.2615,22.5975,0.0331,,,,-99.0,,-99.0,-99.0,27.0187,,27.0190,,0.6408,85.1970,,7.539,,2.1727E+03,,-1.765E-05,,5.9768,5.9808,0.8520,,4.250,27.469,,,,,,,,,,,,
CalCOFI,2007SR,056,58,2007_056u,23-Jul-2020 23:48:49,23-Jul-2020 15:48:49,34.15014,-121.14872,080.0 060.0,080.0,060.0,484.000,488.059,,6.0570,,6.0546,,6.0558,34.3184,,34.3186,34.3212,,34.3228,34.3207,0.2961,,0.2917,0.3164,1.9015,,0.5983,0.4000,0.3582,12.875,12.9521,19.9820,82.688,,24.9027,22.4424,0.0330,,,,-99.0,,-99.0,-99.0,27.0122,,27.0148,,0.6408,85.1970,,7.539,,2.1734E+03,,2.0865E-03,,6.0144,6.0119,0.8520,,4.272,27.434,,,,,,,,,,,,
CalCOFI,2007SR,056,58,2007_056u,23-Jul-2020 23:48:50,23-Jul-2020 15:48:50,34.15014,-121.14872,080.0 060.0,080.0,060.0,483.000,487.050,,6.1028,,6.1030,,6.1029,34.3135,,34.3137,34.3146,,34.3162,34.3150,0.2987,,0.2944,0.3191,1.9014,,0.5980,0.3997,0.3594,12.988,13.0701,20.0818,82.683,,24.8918,22.4868,0.0323,,,,-99.0,,-99.0,-99.0,27.0026,,27.0034,,0.6408,85.1970,,7.539,,2.2041E+03,,5.9813E-04,,6.0601,6.0602,0.8520,,4.314,27.462,,,,,,,,,,,,
CalCOFI,2007SR,056,58,2007_056u,23-Jul-2020 23:48:51,23-Jul-2020 15:48:51,34.15013,-121.14872,080.0 060.0,080.0,060.0,482.000,486.040,,6.1045,,6.1043,,6.1044,34.3127,,34.3129,34.3141,,34.3157,34.3143,0.2978,,0.2935,0.3182,1.8965,,0.5863,0.3871,0.3527,12.949,13.0294,20.0474,82.470,,24.4287,22.2381,0.0332,,,,-99.0,,-99.0,-99.0,27.0017,,27.0029,,0.6409,85.1940,,7.540,,2.2399E+03,,4.4107E-03,,6.0619,6.0616,0.8520,,4.301,27.392,,,,,,,,,,,,
CalCOFI,2007SR,056,58,2007_056u,23-Jul-2020 23:48:52,23-Jul-2020 15:48:52,34.15012,-121.14872,080.0 060.0,080.0,060.0,481.000,485.031,,6.1054,,6.1054,,6.1054,34.3125,,34.3127,34.3140,,34.3156,34.3142,0.2972,,0.2928,0.3175,1.8963,,0.5858,0.3865,0.3520,12.923,13.0022,20.0244,82.464,,24.4156,22.2200,0.0334,,,,-99.0,,-99.0,-99.0,27.0015,,27.0026,,0.6408,85.1961,,7.540,,2.2992E+03,,3.7662E-04,,6.0628,6.0629,0.8520,,4.292,27.391,,,,,,,,,,,,
CalCOFI,2007SR,056,58,2007_056u,23-Jul-2020 23:48:53,23-Jul-2020 15:48:53,34.15013,-121.14872,080.0 060.0,080.0,060.0,480.000,484.021,,6.1063,,6.1068,,6.1066,34.3124,,34.3126,34.3137,,34.3153,34.3140,0.3013,,0.2971,0.3218,1.8981,,0.5901,0.3912,0.3565,13.101,13.1880,20.1815,82.539,,24.5787,22.3801,0.0326,,,,-99.0,,-99.0,-99.0,27.0012,,27.0022,,0.6408,85.1962,,7.539,,2.3432E+03,,2.1488E-05,,6.0638,6.0643,0.8520,,4.352,27.417,,,,,,,,,,,,
CalCOFI,2007SR,056,58,2007_056u,23-Jul-2020 23:48:54,23-Jul-2020 15:48:54,34.15014,-121.14872,080.0 060.0,080.0,060.0,479.000,483.012,,6.1092,,6.1088,,6.1090,34.3119,,34.3121,34.3134,,34.3150,34.3136,0.2990,,0.2947,0.3194,1.8977,,0.5892,0.3902,0.3548,13.004,13.0868,20.0959,82.524,,24.5461,22.3210,0.0327,,,,-99.0,,-99.0,-99.0,27.0004,,27.0017,,0.6408,85.1970,,7.540,,2.3264E+03,,4.8251E-03,,6.0668,6.0664,0.8520,,4.319,27.413,,,,,,,,,,,,
CalCOFI,2007SR,056,58,2007_056u,23-Jul-2020 23:48:55,23-Jul-2020 15:48:55,34.15014,-121.14872,080.0 060.0,080.0,060.0,478.000,482.002,,6.1109,,6.1111,,6.1110,34.3120,,34.3122,34.3133,,34.3149,34.3136,0.2980,,0.2937,0.3184,1.8974,,0.5885,0.3894,0.3539,12.958,13.0388,20.0553,82.508,,24.5113,22.2833,0.0330,,,,-99.0,,-99.0,-99.0,27.0003,,27.0012,,0.6412,85.1894,,7.540,,2.3507E+03,,2.1317E-03,,6.0686,6.0688,0.8520,,4.305,27.409,,,,,,,,,,,,
CalCOFI,2007SR,056,58,2007_056u,23-Jul-2020 23:48:56,23-Jul-2020 15:48:56,34.15014,-121.14872,080.0 060.0,080.0,060.0,477.000,480.993,,6.1109,,6.1110,,6.1110,34.3122,,34.3124,34.3135,,34.3151,34.3138,0.2979,,0.2936,0.3183,1.8971,,0.5877,0.3886,0.3535,12.957,13.0377,20.0544,82.497,,24.4874,22.2709,0.0332,,,,-99.0,,-99.0,-99.0,27.0004,,27.0014,,0.6408,85.1971,,7.541,,2.3190E+03,,7.7262E-03,,6.0687,6.0688,0.8520,,4.304,27.405,,,,,,,,,,,,
CalCOFI,2007SR,056,58,2007_056u,23-Jul-2020 23:48:57,23-Jul-2020 15:48:57,34.15014,-121.14872,080.0 060.0,080.0,060.0,476.000,479.983,,6.1118,,6.1119,,6.1119,34.3122,,34.3124,34.3134,,34.3150,34.3137,0.3015,,0.2973,0.3220,1.8968,,0.5870,0.3878,0.3549,13.111,13.1985,20.1903,82.485,,24.4613,22.3258,0.0316,,,,-99.0,,-99.0,-99.0,27.0003,,27.0012,,0.6416,85.1807,,7.540,,2.2886E+03,,4.7788E-03,,6.0697,6.0698,0.8520,,4.355,27.402,,,,,,,,,,,,
CalCOFI,2007SR,056,58,2007_056u,23-Jul-2020 23:48:58,23-Jul-2020 15:48:58,34.15014,-121.14872,080.0 060.0,080.0,060.0,475.000,478.973,,6.1168,,6.1168,,6.1168,34.3122,,34.3124,34.3138,,34.3154,34.3139,0.3076,,0.3037,0.3283,1.8963,,0.5858,0.3865,0.3574,13.374,13.4730,20.4225,82.463,,24.4134,22.4180,0.0330,,,,-99.0,,-99.0,-99.0,26.9997,,27.0009,,0.6408,85.1972,,7.540,,2.2802E+03,,4.6352E-03,,6.0748,6.0747,0.8520,,4.443,27.398,,,,,,,,,,,,
CalCOFI,2007SR,056,58,2007_056u,23-Jul-2020 23:48:59,23-Jul-2020 15:48:59,34.15014,-121.14872,080.0 060.0,080.0,060.0,474.000,477.964,,6.1280,,6.1280,,6.1280,34.3109,,34.3111,34.3122,,34.3138,34.3125,0.3074,,0.3035,0.3281,1.8955,,0.5839,0.3845,0.3563,13.366,13.4647,20.4154,82.429,,24.3395,22.3775,0.0330,,,,-99.0,,-99.0,-99.0,26.9972,,26.9983,,0.6408,85.1970,,7.540,,2.2918E+03,,2.9452E-03,,6.0860,6.0860,0.8520,,4.442,27.393,,,,,,,,,,,,
CalCOFI,2007SR,056,58,2007_056u,23-Jul-2020 23:48:59,23-Jul-2020 15:48:59,34.15014,-121.14872,080.0 060.0,080.0,060.0,473.000,476.954,,6.1349,,6.1349,,6.1349,34.3073,,34.3075,34.3085,,34.3101,34.3088,0.3102,,0.3064,0.3310,1.8950,,0.5827,0.3832,0.3571,13.490,13.5941,20.5249,82.406,,24.2895,22.4072,0.0329,,,,-99.0,,-99.0,-99.0,26.9934,,26.9944,,0.6408,85.1970,,7.540,,2.3183E+03,,7.0256E-03,,6.0929,6.0929,0.8520,,4.484,27.389,,,,,,,,,,,,
CalCOFI,2007SR,056,58,2007_056u,23-Jul-2020 23:49:00,23-Jul-2020 15:49:00,34.15014,-121.14872,080.0 060.0,080.0,060.0,472.000,475.945,,6.1361,,6.1361,,6.1361,34.3058,,34.3060,34.3073,,34.3089,34.3075,0.3067,,0.3028,0.3274,1.8947,,0.5820,0.3824,0.3549,13.336,13.4334,20.3889,82.393,,24.2612,22.3251,0.0329,,,,-99.0,,-99.0,-99.0,26.9921,,26.9933,,0.6408,85.1970,,7.541,,2.3614E+03,,3.5402E-03,,6.0942,6.0943,0.8520,,4.432,27.385,,,,,,,,,,,,
CalCOFI,2007SR,056,58,2007_056u,23-Jul-2020 23:49:02,23-Jul-2020 15:49:02,34.15014,-121.14872,080.0 060.0,080.0,060.0,471.000,474.935,,6.1360,,6.1359,,6.1360,34.3056,,34.3058,34.3070,,34.3086,34.3072,0.3077,,0.3038,0.3284,1.8945,,0.5815,0.3819,0.3552,13.380,13.4793,20.4278,82.383,,24.2395,22.3337,0.0334,,,,-99.0,,-99.0,-99.0,26.9920,,26.9931,,0.6422,85.1667,,7.541,,2.3230E+03,,4.6019E-03,,6.0942,6.0941,0.8520,,4.447,27.382,,,,,,,,,,,,
CalCOFI,2007SR,056,58,2007_056u,23-Jul-2020 23:49:03,23-Jul-2020 15:49:03,34.15014,-121.14872,080.0 060.0,080.0,060.0,470.000,473.926,,6.1375,,6.1369,,6.1372,34.3050,,34.3052,34.3067,,34.3083,34.3068,0.3126,,0.3089,0.3335,1.8948,,0.5823,0.3827,0.3581,13.593,13.7016,20.6158,82.396,,24.2677,22.4418,0.0327,,,,-99.0,,-99.0,-99.0,26.9913,,26.9927,,0.6404,85.2048,,7.541,,2.2695E+03,,5.5489E-03,,6.0959,6.0953,0.8520,,4.518,27.387,,,,,,,,,,,,
CalCOFI,2007SR,056,58,2007_056u,23-Jul-2020 23:49:04,23-Jul-2020 15:49:04,34.15014,-121.14872,080.0 060.0,080.0,060.0,469.000,472.916,,6.1404,,6.1401,,6.1403,34.3043,,34.3045,34.3058,,34.3074,34.3060,0.3135,,0.3099,0.3345,1.8936,,0.5794,0.3795,0.3570,13.631,13.7413,20.6493,82.344,,24.1547,22.4020,0.0333,,,,-99.0,,-99.0,-99.0,26.9903,,26.9915,,0.6403,85.2075,,7.541,,2.2448E+03,,2.9438E-03,,6.0989,6.0985,0.8520,,4.531,27.371,,,,,,,,,,,,
CalCOFI,2007SR,056,58,2007_056u,23-Jul-2020 23:49:05,23-Jul-2020 15:49:05,34.15014,-121.14872,080.0 060.0,080.0,060.0,468.000,471.907,,6.1411,,6.1408,,6.1410,34.3041,,34.3043,34.3054,,34.3070,34.3057,0.3148,,0.3112,0.3358,1.8953,,0.5834,0.3839,0.3599,13.690,13.8029,20.7014,82.418,,24.3156,22.5085,0.0326,,,,-99.0,,-99.0,-99.0,26.9901,,26.9912,,0.6404,85.2064,,7.541,,2.2146E+03,,5.2002E-03,,6.0996,6.0993,0.8520,,4.551,27.396,,,,,,,,,,,,
CalCOFI,2007SR,056,58,2007_056u,23-Jul-2020 23:49:06,23-Jul-2020 15:49:06,34.15014,-121.14872,080.0 060.0,080.0,060.0,467.000,470.897,,6.1414,,6.1414,,6.1414,34.3040,,34.3042,34.3053,,34.3069,34.3056,0.3113,,0.3076,0.3322,1.9050,,0.6066,0.4091,0.3707,13.539,13.6453,20.5681,82.840,,25.2332,22.9007,0.0337,,,,-99.0,,-99.0,-99.0,26.9899,,26.9910,,0.6408,85.1969,,7.542,,2.1913E+03,,5.2794E-03,,6.1000,6.1000,0.8520,,4.501,27.537,,,,,,,,,,,,
CalCOFI,2007SR,056,58,2007_056u,23-Jul-2020 23:49:07,23-Jul-2020 15:49:07,34.15014,-121.14872,080.0 060.0,080.0,060.0,466.000,469.888,,6.1419,,6.1418,,6.1419,34.3039,,34.3041,34.3052,,34.3068,34.3055,0.3140,,0.3104,0.3350,1.9003,,0.5954,0.3969,0.3660,13.654,13.7653,20.6696,82.638,,24.7940,22.7318,0.0331,,,,-99.0,,-99.0,-99.0,26.9898,,26.9908,,0.6397,85.2207,,7.542,,2.1616E+03,,3.6374E-03,,6.1006,6.1005,0.8520,,4.539,27.470,,,,,,,,,,,,
CalCOFI,2007SR,056,58,2007_056u,23-Jul-2020 23:49:08,23-Jul-2020 15:49:08,34.15014,-121.14872,080.0 060.0,080.0,060.0,465.000,468.878,,6.1432,,6.1427,,6.1430,34.3037,,34.3039,34.3051,,34.3067,34.3053,0.3121,,0.3084,0.3330,1.8907,,0.5725,0.3720,0.3525,13.574,13.6818,20.5990,82.218,,23.8807,22.2399,0.0328,,,,-99.0,,-99.0,-99.0,26.9895,,26.9907,,0.6407,85.2001,,7.542,,2.1554E+03,,2.0026E-03,,6.1020,6.1015,0.8520,,4.512,27.331,,,,,,,,,,,,
CalCOFI,2007SR,056,58,2007_056u,23-Jul-2020 23:49:09,23-Jul-2020 15:49:09,34.15014,-121.14872,080.0 060.0,080.0,060.0,464.000,467.869,,6.1471,,6.1473,,6.1472,34.3031,,34.3033,34.3045,,34.3061,34.3047,0.3160,,0.3125,0.3370,1.8869,,0.5634,0.3622,0.3496,13.743,13.8582,20.7482,82.053,,23.5219,22.1351,0.0332,,,,-99.0,,-99.0,-99.0,26.9885,,26.9896,,0.6398,85.2194,,7.542,,2.1787E+03,,9.0532E-03,,6.1060,6.1061,0.8520,,4.569,27.279,,,,,,,,,,,,